Home   Weather   Ocala   Past weeks

Flag for USA Past Weather in Ocala, Florida, USA — Yesterday and Last 2 Weeks

Now
91 °F

Scattered clouds.


Feels Like: 94 °F
Forecast: 66 / 94 °F
Wind: 12 mph from South

Location: Ocala Municipal

Current Time: Apr 28, 2017 at 2:08:39 pm

Latest Report: Apr 28, 2017 at 1:50 pm


Visibility: 10 mi

Pressure: 30.07 "Hg

Humidity: 44%

Dew Point: 66 °F

Location of OcalaLocation

Past Weather in Ocala — Graph

°F

Ocala Temperature Yesterday

Maximum temperature yesterday: 93 °F (at 3:50 pm)
Minimum temperature yesterday: 57 °F (at 6:15 am)
Average temperature yesterday: 71 °F

High & Low Weather Summary for the Past Weeks

 TemperatureHumidityPressure
High93 °F (Apr 27, 3:50 pm)94% (Apr 14, 6:50 am)30.30 "Hg (Apr 14, 6:50 am)
Low50 °F (Apr 25, 6:15 am)29% (Apr 19, 3:50 pm)29.71 "Hg (Apr 24, 4:50 pm)
Average69 °F66%30.02 "Hg
* Reported Apr 13 12:50 pm — Apr 28 12:50 pm, Ocala, Weather by CustomWeather, © 2017

Note: Actual official high and low records may vary slightly from our data, if they occured in-between our weather recording intervals... More about our weather records

Advertising

Ocala Weather History for the Previous 24 Hours

Scroll right to see more
 ConditionsComfort  
Time TempWeatherWind HumidityBarometerVisibility
12:50 pm
Fri, Apr 28
90 °FScattered clouds.12 mph46%30.08 "Hg10 mi
11:50 am88 °FScattered clouds.7 mph55%30.09 "Hg10 mi
10:50 am84 °FScattered clouds.15 mph62%30.09 "Hg10 mi
9:50 am81 °FSunny.10 mph70%30.07 "Hg10 mi
8:50 am73 °FSunny.7 mph83%30.07 "Hg7 mi
7:50 am66 °FFog.No wind88%30.04 "Hg5 mi
6:50 am64 °FFog.No wind88%30.01 "Hg5 mi
6:35 am64 °FClear.No wind88%30.01 "Hg5 mi
6:15 am64 °FClear.No wind88%30.01 "Hg7 mi
5:55 am64 °FClear.No wind88%30.01 "Hg5 mi
5:35 am66 °FClear.No wind88%30.00 "Hg7 mi
5:15 am66 °FClear.No wind88%30.00 "Hg6 mi
4:55 am66 °FClear.No wind88%29.99 "Hg8 mi
4:35 am66 °FClear.No wind88%29.99 "Hg9 mi
4:15 am66 °FClear.No wind88%29.99 "Hg10 mi
3:55 am66 °FClear.No wind88%29.98 "Hg10 mi
3:35 am66 °FClear.No wind88%29.97 "Hg10 mi
3:15 am66 °FClear.No wind88%29.97 "Hg9 mi
2:55 am66 °FClear.3 mph88%29.97 "Hg10 mi
2:35 am66 °FClear.No wind88%29.98 "Hg10 mi
2:15 am68 °FClear.No wind83%29.97 "Hg10 mi
1:55 am68 °FClear.No wind83%29.98 "Hg10 mi
1:35 am70 °FClear.No wind78%29.99 "Hg10 mi
1:15 am70 °FClear.3 mph78%29.99 "Hg10 mi
12:55 am70 °FClear.3 mph78%29.99 "Hg10 mi
12:35 am70 °FClear.No wind83%29.99 "Hg10 mi
12:15 am72 °FClear.No wind78%29.99 "Hg10 mi
11:55 pm
Thu, Apr 27
72 °FClear.No wind78%29.98 "Hg10 mi
11:35 pm72 °FClear.3 mph73%29.98 "Hg10 mi
11:15 pm72 °FClear.No wind73%29.97 "Hg10 mi
10:55 pm72 °FClear.No wind73%29.96 "Hg10 mi
10:35 pm73 °FClear.No wind69%29.95 "Hg10 mi
10:15 pm73 °FClear.No wind69%29.95 "Hg10 mi
9:55 pm73 °FClear.No wind65%29.94 "Hg10 mi
9:35 pm73 °FClear.5 mph65%29.93 "Hg10 mi
9:15 pm75 °FClear.3 mph65%29.94 "Hg10 mi
8:55 pm79 °FClear.No wind58%29.93 "Hg10 mi
8:35 pm81 °FClear.No wind54%29.93 "Hg10 mi
8:15 pm81 °FClear.3 mph54%29.92 "Hg10 mi
7:55 pm82 °FSunny.6 mph51%29.92 "Hg10 mi
6:50 pm88 °FSunny.10 mph43%29.91 "Hg10 mi
5:50 pm90 °FScattered clouds.13 mph43%29.89 "Hg10 mi
4:50 pm91 °FPassing clouds.12 mph41%29.88 "Hg10 mi
3:50 pm93 °FPassing clouds.9 mph34%29.88 "Hg10 mi
2:50 pm91 °FPassing clouds.9 mph34%29.91 "Hg10 mi
Weather by CustomWeather, © 2017

See weather overviewHow to use our weather pages